NOZ104 ENBR-ENEV

Flight info

Callsign NOZ104
Flight time 1h 32m
Altitude 33000
Route INTUM DCT PENNO
Aircraft B738/M-SDE2E3FGHIRWXY/LB1

Departure

Time 2026-04-20 20:54
Airport Bergen Airport, Flesland (ENBR)

Arrival

Time 2026-04-20 22:26
Airport Harstad/Narvik Airport (ENEV)
Time Latitude Longitude Altitude Speed Heading
2026-04-20 20:27 60.28740 5.22904 172 ft 0 kts 80°
2026-04-20 20:46 60.28740 5.22902 172 ft 1 kts 80°
2026-04-20 20:46 60.28736 5.22853 172 ft 4 kts 80°
2026-04-20 20:46 60.28732 5.22801 172 ft 2 kts 80°
2026-04-20 20:46 60.28731 5.22797 172 ft 0 kts 80°
2026-04-20 20:49 60.28731 5.22798 172 ft 1 kts 87°
2026-04-20 20:50 60.28724 5.22801 172 ft 2 kts 180°
2026-04-20 20:50 60.28701 5.22760 170 ft 7 kts 222°
2026-04-20 20:50 60.28673 5.22635 166 ft 14 kts 262°
2026-04-20 20:50 60.28679 5.22465 164 ft 11 kts 288°
2026-04-20 20:51 60.28638 5.22373 164 ft 11 kts 174°
2026-04-20 20:51 60.28564 5.22399 163 ft 11 kts 169°
2026-04-20 20:51 60.28491 5.22427 162 ft 11 kts 171°
2026-04-20 20:51 60.28412 5.22452 161 ft 13 kts 172°
2026-04-20 20:52 60.28314 5.22483 156 ft 16 kts 170°
2026-04-20 20:52 60.28201 5.22522 151 ft 17 kts 171°
2026-04-20 20:52 60.28082 5.22542 151 ft 17 kts 202°
2026-04-20 20:52 60.28048 5.22327 149 ft 17 kts 279°
2026-04-20 20:53 60.28138 5.22221 149 ft 17 kts 351°
2026-04-20 20:53 60.28465 5.22109 161 ft 82 kts 350°
2026-04-20 20:53 60.29247 5.21844 156 ft 144 kts 350°
2026-04-20 20:53 60.30361 5.21440 463 ft 169 kts 349°
2026-04-20 20:54 60.31505 5.20909 1285 ft 167 kts 345°
2026-04-20 20:54 60.32639 5.20494 2052 ft 168 kts 352°
2026-04-20 20:54 60.33881 5.20163 2387 ft 194 kts 353°
2026-04-20 20:54 60.35300 5.19767 2600 ft 217 kts 352°
2026-04-20 20:55 60.36820 5.19313 2995 ft 228 kts 352°
2026-04-20 20:55 60.38432 5.18806 3414 ft 245 kts 351°
2026-04-20 20:55 60.40146 5.18243 4020 ft 253 kts 351°
2026-04-20 20:55 60.41892 5.17651 4773 ft 256 kts 351°
2026-04-20 20:56 60.43663 5.17040 5509 ft 260 kts 351°
2026-04-20 20:56 60.45459 5.16414 6238 ft 263 kts 352°
2026-04-20 20:56 60.47284 5.15831 6951 ft 267 kts 351°
2026-04-20 20:56 60.49144 5.15564 7636 ft 271 kts 11°
2026-04-20 20:57 60.50820 5.17117 8344 ft 271 kts 35°
2026-04-20 20:57 60.52370 5.19331 9039 ft 275 kts 36°
2026-04-20 20:57 60.53934 5.21611 9711 ft 279 kts 36°
2026-04-20 20:57 60.55517 5.23929 10401 ft 282 kts 36°
2026-04-20 20:58 60.57129 5.26285 10908 ft 293 kts 36°
2026-04-20 20:58 60.58848 5.28793 11078 ft 315 kts 36°
2026-04-20 20:58 60.60689 5.31475 11241 ft 336 kts 36°
2026-04-20 20:58 60.62638 5.34309 11455 ft 353 kts 36°
2026-04-20 20:59 60.64661 5.37248 11946 ft 360 kts 36°
2026-04-20 20:59 60.66709 5.40222 12594 ft 362 kts 36°
2026-04-20 20:59 60.68740 5.43175 13227 ft 365 kts 36°
2026-04-20 20:59 60.70819 5.46201 13853 ft 369 kts 36°
2026-04-20 21:00 60.72916 5.49259 14485 ft 372 kts 36°
2026-04-20 21:00 60.75030 5.52346 15134 ft 375 kts 36°
2026-04-20 21:00 60.77162 5.55467 15793 ft 378 kts 36°
2026-04-20 21:00 60.79308 5.58613 16430 ft 381 kts 36°
2026-04-20 21:01 60.81473 5.61792 17048 ft 385 kts 36°
2026-04-20 21:01 60.83656 5.65002 17636 ft 388 kts 36°
2026-04-20 21:01 60.85832 5.68208 18187 ft 392 kts 36°
2026-04-20 21:01 60.88055 5.71488 18757 ft 395 kts 36°
2026-04-20 21:02 60.90296 5.74802 19299 ft 398 kts 36°
2026-04-20 21:02 60.92553 5.78143 19823 ft 402 kts 36°
2026-04-20 21:02 60.94831 5.81522 20320 ft 406 kts 36°
2026-04-20 21:02 60.97131 5.84928 20816 ft 409 kts 35°
2026-04-20 21:03 60.99551 5.88048 21304 ft 412 kts 30°
2026-04-20 21:03 61.02079 5.90862 21802 ft 414 kts 27°
2026-04-20 21:03 61.04618 5.93536 22294 ft 416 kts 27°
2026-04-20 21:03 61.07211 5.96240 22768 ft 419 kts 26°
2026-04-20 21:04 61.09816 5.98980 23202 ft 422 kts 26°
2026-04-20 21:04 61.12434 6.01776 23601 ft 425 kts 27°
2026-04-20 21:04 61.15071 6.04629 23958 ft 429 kts 27°
2026-04-20 21:04 61.17719 6.07526 24358 ft 432 kts 27°
2026-04-20 21:05 61.20382 6.10461 24748 ft 435 kts 27°
2026-04-20 21:05 61.23055 6.13423 25103 ft 438 kts 28°
2026-04-20 21:05 61.25746 6.16413 25465 ft 440 kts 28°
2026-04-20 21:05 61.28422 6.19392 25828 ft 443 kts 28°
2026-04-20 21:06 61.31140 6.22425 26152 ft 445 kts 28°
2026-04-20 21:06 61.33883 6.25492 26476 ft 448 kts 28°
2026-04-20 21:06 61.36634 6.28572 26803 ft 451 kts 28°
2026-04-20 21:06 61.39407 6.31683 27128 ft 453 kts 28°
2026-04-20 21:07 61.42184 6.34807 27425 ft 455 kts 29°
2026-04-20 21:07 61.44980 6.37958 27725 ft 457 kts 29°
2026-04-20 21:07 61.47779 6.41163 28028 ft 459 kts 30°
2026-04-20 21:07 61.50582 6.44413 28299 ft 461 kts 29°
2026-04-20 21:08 61.53373 6.47568 28575 ft 463 kts 29°
2026-04-20 21:08 61.56217 6.50766 28863 ft 464 kts 29°
2026-04-20 21:08 61.59058 6.53968 29235 ft 463 kts 29°
2026-04-20 21:08 61.61889 6.57175 29642 ft 462 kts 30°
2026-04-20 21:09 61.64711 6.60386 30056 ft 460 kts 30°
2026-04-20 21:09 61.67521 6.63596 30412 ft 460 kts 30°
2026-04-20 21:09 61.70332 6.66819 30736 ft 459 kts 30°
2026-04-20 21:09 61.73135 6.70042 31105 ft 458 kts 30°
2026-04-20 21:10 61.75923 6.73255 31511 ft 456 kts 30°
2026-04-20 21:10 61.78664 6.76422 31878 ft 454 kts 30°
2026-04-20 21:10 61.81432 6.79626 32194 ft 454 kts 30°
2026-04-20 21:10 61.84193 6.82830 32512 ft 453 kts 30°
2026-04-20 21:11 61.86953 6.86043 32835 ft 452 kts 30°
2026-04-20 21:11 61.89702 6.89243 33190 ft 450 kts 30°
2026-04-20 21:11 61.92455 6.92402 33494 ft 449 kts 30°
2026-04-20 21:11 61.95199 6.95625 33515 ft 454 kts 30°
2026-04-20 21:12 62.00726 7.02145 33522 ft 453 kts 30°
2026-04-20 21:12 62.06177 7.08574 33528 ft 449 kts 30°
2026-04-20 21:13 62.11647 7.15040 33536 ft 450 kts 30°
2026-04-20 21:13 62.17121 7.21540 33531 ft 450 kts 30°
2026-04-20 21:14 62.22602 7.28079 33537 ft 451 kts 30°
2026-04-20 21:14 62.28049 7.34610 33536 ft 452 kts 30°
2026-04-20 21:15 62.33537 7.41211 33528 ft 452 kts 30°
2026-04-20 21:15 62.39030 7.47845 33525 ft 452 kts 31°
2026-04-20 21:16 62.44511 7.54491 33525 ft 452 kts 31°
2026-04-20 21:16 62.49996 7.61174 33538 ft 453 kts 31°
2026-04-20 21:17 62.55443 7.67839 33529 ft 452 kts 31°
2026-04-20 21:17 62.60921 7.74559 33533 ft 452 kts 31°
2026-04-20 21:18 62.66394 7.81321 33530 ft 452 kts 31°
2026-04-20 21:18 62.71863 7.88101 33535 ft 452 kts 31°
2026-04-20 21:19 62.77297 7.94861 33528 ft 452 kts 31°
2026-04-20 21:20 62.85483 8.05106 33521 ft 452 kts 31°
2026-04-20 21:20 62.90018 8.10810 33536 ft 452 kts 31°
2026-04-20 21:21 62.96394 8.18866 33535 ft 452 kts 31°
2026-04-20 21:21 63.01808 8.25737 33535 ft 452 kts 31°
2026-04-20 21:22 63.07259 8.32682 33535 ft 453 kts 31°
2026-04-20 21:22 63.12708 8.39656 33533 ft 453 kts 31°
2026-04-20 21:23 63.18156 8.46663 33533 ft 453 kts 31°
2026-04-20 21:23 63.23567 8.53658 33537 ft 453 kts 32°
2026-04-20 21:24 63.29019 8.60727 33529 ft 454 kts 32°
2026-04-20 21:24 63.34468 8.67824 33531 ft 454 kts 32°
2026-04-20 21:25 63.39918 8.74956 33533 ft 454 kts 32°
2026-04-20 21:25 63.45365 8.82117 33529 ft 454 kts 32°
2026-04-20 21:26 63.50769 8.89252 33532 ft 454 kts 32°
2026-04-20 21:26 63.56210 8.96469 33525 ft 454 kts 32°
2026-04-20 21:27 63.61644 9.03709 33536 ft 454 kts 32°
2026-04-20 21:27 63.67080 9.10984 33536 ft 455 kts 32°
2026-04-20 21:28 63.72477 9.18237 33534 ft 455 kts 32°
2026-04-20 21:28 63.77911 9.25576 33541 ft 455 kts 32°
2026-04-20 21:29 63.83344 9.32946 33526 ft 455 kts 32°
2026-04-20 21:29 63.88770 9.40341 33530 ft 455 kts 32°
2026-04-20 21:30 63.94159 9.47716 33532 ft 456 kts 32°
2026-04-20 21:30 63.99587 9.55184 33531 ft 456 kts 32°
2026-04-20 21:31 64.05017 9.62688 33528 ft 456 kts 32°
2026-04-20 21:31 64.10439 9.70210 33525 ft 456 kts 32°
2026-04-20 21:32 64.15865 9.77776 33536 ft 457 kts 32°
2026-04-20 21:32 64.21252 9.85321 33535 ft 457 kts 32°
2026-04-20 21:33 64.26667 9.92939 33523 ft 457 kts 32°
2026-04-20 21:33 64.32097 10.00619 33518 ft 457 kts 33°
2026-04-20 21:34 64.37511 10.08308 33518 ft 457 kts 33°
2026-04-20 21:34 64.42919 10.16023 33530 ft 457 kts 33°
2026-04-20 21:35 64.48287 10.23718 33531 ft 456 kts 33°
2026-04-20 21:35 64.53672 10.31476 33533 ft 456 kts 33°
2026-04-20 21:36 64.59051 10.39262 33536 ft 455 kts 33°
2026-04-20 21:36 64.64429 10.47083 33516 ft 455 kts 33°
2026-04-20 21:37 64.69762 10.54878 33529 ft 455 kts 33°
2026-04-20 21:37 64.75122 10.62745 33535 ft 455 kts 33°
2026-04-20 21:38 64.80480 10.70647 33534 ft 455 kts 33°
2026-04-20 21:38 64.85797 10.78526 33532 ft 455 kts 33°
2026-04-20 21:39 64.91145 10.86492 33540 ft 455 kts 33°
2026-04-20 21:39 64.96489 10.94487 33532 ft 455 kts 33°
2026-04-20 21:40 65.01831 11.02519 33534 ft 455 kts 33°
2026-04-20 21:40 65.07165 11.10577 33530 ft 455 kts 33°
2026-04-20 21:41 65.12461 11.18615 33536 ft 455 kts 33°
2026-04-20 21:41 65.17789 11.26742 33537 ft 455 kts 33°
2026-04-20 21:42 65.23111 11.34896 33529 ft 455 kts 33°
2026-04-20 21:42 65.27533 11.41705 33517 ft 455 kts 33°
2026-04-20 21:43 65.33709 11.51260 33511 ft 455 kts 33°
2026-04-20 21:43 65.39017 11.59516 33513 ft 455 kts 33°
2026-04-20 21:44 65.43426 11.66405 33516 ft 455 kts 33°
2026-04-20 21:44 65.48722 11.74713 33514 ft 455 kts 33°
2026-04-20 21:45 65.54876 11.84418 33504 ft 455 kts 33°
2026-04-20 21:45 65.60157 11.92794 33504 ft 454 kts 33°
2026-04-20 21:46 65.64548 11.99793 33507 ft 454 kts 33°
2026-04-20 21:46 65.69819 12.08237 33506 ft 454 kts 33°
2026-04-20 21:47 65.75090 12.16712 33501 ft 454 kts 33°
2026-04-20 21:47 65.80351 12.25209 33494 ft 454 kts 33°
2026-04-20 21:48 65.85606 12.33745 33486 ft 454 kts 33°
2026-04-20 21:48 65.90825 12.42266 33487 ft 454 kts 33°
2026-04-20 21:49 65.96070 12.50875 33485 ft 454 kts 33°
2026-04-20 21:49 66.01314 12.59523 33486 ft 454 kts 33°
2026-04-20 21:50 66.06525 12.68284 33490 ft 453 kts 33°
2026-04-20 21:50 66.11721 12.76890 33482 ft 453 kts 33°
2026-04-20 21:51 66.16952 12.85585 33486 ft 453 kts 33°
2026-04-20 21:51 66.22164 12.94338 33489 ft 453 kts 33°
2026-04-20 21:52 66.27369 13.03139 33492 ft 453 kts 33°
2026-04-20 21:52 66.32538 13.11929 33484 ft 453 kts 33°
2026-04-20 21:53 66.37722 13.20786 33499 ft 452 kts 33°
2026-04-20 21:53 66.42903 13.29685 33494 ft 452 kts 33°
2026-04-20 21:54 66.48085 13.38628 33502 ft 452 kts 33°
2026-04-20 21:54 66.53223 13.47541 33504 ft 452 kts 33°
2026-04-20 21:55 66.58395 13.56558 33504 ft 453 kts 33°
2026-04-20 21:55 66.63567 13.65625 33502 ft 453 kts 34°
2026-04-20 21:56 66.68733 13.74727 33501 ft 453 kts 34°
2026-04-20 21:56 66.73861 13.83811 33493 ft 453 kts 34°
2026-04-20 21:57 66.79019 13.92997 33495 ft 453 kts 34°
2026-04-20 21:57 66.84171 14.02218 33495 ft 453 kts 34°
2026-04-20 21:58 66.89316 14.11477 33486 ft 453 kts 33°
2026-04-20 21:58 66.94452 14.20768 33488 ft 452 kts 34°
2026-04-20 21:59 66.99542 14.30023 33486 ft 452 kts 33°
2026-04-20 21:59 67.04663 14.39376 33485 ft 452 kts 33°
2026-04-20 22:00 67.09770 14.48761 33491 ft 452 kts 34°
2026-04-20 22:00 67.14874 14.58190 33484 ft 452 kts 34°
2026-04-20 22:01 67.19934 14.67592 33486 ft 451 kts 34°
2026-04-20 22:01 67.25020 14.77089 33485 ft 451 kts 34°
2026-04-20 22:02 67.30099 14.86618 33403 ft 452 kts 34°
2026-04-20 22:02 67.32672 14.91462 32789 ft 457 kts 34°
2026-04-20 22:02 67.35233 14.96301 32135 ft 455 kts 34°
2026-04-20 22:02 67.37790 15.01150 31412 ft 456 kts 34°
2026-04-20 22:03 67.40316 15.05952 30688 ft 456 kts 34°
2026-04-20 22:03 67.42874 15.10827 30064 ft 453 kts 34°
2026-04-20 22:03 67.45400 15.15655 29523 ft 448 kts 34°
2026-04-20 22:03 67.47901 15.20448 28980 ft 443 kts 34°
2026-04-20 22:04 67.50370 15.25191 28439 ft 439 kts 34°
2026-04-20 22:04 67.52812 15.29894 27898 ft 434 kts 34°
2026-04-20 22:04 67.55227 15.34556 27366 ft 429 kts 34°
2026-04-20 22:04 67.57615 15.39179 26838 ft 425 kts 34°
2026-04-20 22:05 67.59978 15.43764 26311 ft 421 kts 34°
2026-04-20 22:05 67.62288 15.48257 25814 ft 416 kts 34°
2026-04-20 22:05 67.64603 15.52771 25290 ft 412 kts 34°
2026-04-20 22:05 67.66893 15.57247 24783 ft 408 kts 34°
2026-04-20 22:06 67.69161 15.61693 24272 ft 405 kts 34°
2026-04-20 22:06 67.71409 15.66110 23765 ft 401 kts 34°
2026-04-20 22:06 67.73633 15.70492 23263 ft 398 kts 34°
2026-04-20 22:06 67.75835 15.74838 22763 ft 394 kts 34°
2026-04-20 22:07 67.78021 15.79165 22273 ft 391 kts 34°
2026-04-20 22:07 67.80163 15.83415 21786 ft 388 kts 34°
2026-04-20 22:07 67.82311 15.87685 21297 ft 385 kts 34°
2026-04-20 22:07 67.84439 15.91926 20804 ft 382 kts 34°
2026-04-20 22:08 67.86556 15.96155 20318 ft 379 kts 34°
2026-04-20 22:08 67.88657 16.00359 19835 ft 377 kts 34°
2026-04-20 22:08 67.90736 16.04533 19365 ft 374 kts 34°
2026-04-20 22:08 67.92821 16.08648 18881 ft 371 kts 30°
2026-04-20 22:09 67.95150 16.11263 18474 ft 360 kts
2026-04-20 22:09 67.97558 16.12520 18039 ft 356 kts
2026-04-20 22:09 67.99988 16.13672 17583 ft 354 kts
2026-04-20 22:09 68.02401 16.14803 17128 ft 352 kts
2026-04-20 22:10 68.04804 16.15948 16676 ft 350 kts
2026-04-20 22:10 68.07192 16.17106 16214 ft 348 kts
2026-04-20 22:10 68.09565 16.18275 15757 ft 346 kts
2026-04-20 22:10 68.11918 16.19446 15323 ft 344 kts
2026-04-20 22:11 68.14266 16.20622 14854 ft 341 kts
2026-04-20 22:11 68.16594 16.21793 14407 ft 339 kts
2026-04-20 22:11 68.18876 16.22944 13972 ft 337 kts
2026-04-20 22:11 68.21169 16.24104 13529 ft 335 kts
2026-04-20 22:12 68.23454 16.25265 13091 ft 332 kts
2026-04-20 22:12 68.25721 16.26418 12651 ft 330 kts
2026-04-20 22:12 68.27969 16.27563 12224 ft 328 kts
2026-04-20 22:12 68.30207 16.28705 11789 ft 326 kts
2026-04-20 22:13 68.32431 16.29842 11356 ft 324 kts
2026-04-20 22:13 68.34619 16.30963 11173 ft 315 kts
2026-04-20 22:13 68.36708 16.32040 11030 ft 305 kts
2026-04-20 22:13 68.38757 16.33097 10898 ft 295 kts
2026-04-20 22:14 68.40747 16.34012 10765 ft 284 kts
2026-04-20 22:14 68.42673 16.34162 10647 ft 272 kts 355°
2026-04-20 22:14 68.44530 16.34045 10534 ft 262 kts 354°
2026-04-20 22:14 68.46323 16.33904 10429 ft 253 kts 354°
2026-04-20 22:15 68.48065 16.33785 10207 ft 248 kts 354°
2026-04-20 22:15 68.49789 16.33682 9951 ft 247 kts 354°
2026-04-20 22:15 68.51499 16.33597 9704 ft 245 kts 354°
2026-04-20 22:15 68.53201 16.33519 9414 ft 245 kts 354°
2026-04-20 22:16 68.54878 16.33457 9180 ft 243 kts 354°
2026-04-20 22:16 68.56587 16.33391 8926 ft 249 kts 354°
2026-04-20 22:16 68.58340 16.33329 8658 ft 255 kts 354°
2026-04-20 22:16 68.60141 16.33272 8338 ft 262 kts 355°
2026-04-20 22:17 68.61960 16.33223 8062 ft 260 kts 355°
2026-04-20 22:17 68.63787 16.33169 7507 ft 269 kts 355°
2026-04-20 22:17 68.65677 16.33109 7079 ft 273 kts 355°
2026-04-20 22:17 68.67553 16.33058 6752 ft 273 kts 355°
2026-04-20 22:18 68.69446 16.33008 6462 ft 272 kts 356°
2026-04-20 22:18 68.71316 16.33372 6167 ft 270 kts 14°
2026-04-20 22:18 68.72896 16.35913 6057 ft 262 kts 43°
2026-04-20 22:18 68.73875 16.39968 5960 ft 248 kts 66°
2026-04-20 22:19 68.74214 16.44430 5843 ft 231 kts 86°
2026-04-20 22:19 68.74286 16.48679 5706 ft 212 kts 86°
2026-04-20 22:19 68.74343 16.52527 5556 ft 190 kts 87°
2026-04-20 22:19 68.74396 16.56015 5589 ft 181 kts 87°
2026-04-20 22:20 68.74408 16.59462 5363 ft 182 kts 99°
2026-04-20 22:20 68.73893 16.62502 5188 ft 172 kts 135°
2026-04-20 22:20 68.72953 16.64357 5012 ft 165 kts 163°
2026-04-20 22:20 68.71848 16.65012 4868 ft 161 kts 179°
2026-04-20 22:21 68.70728 16.65274 4683 ft 163 kts 181°
2026-04-20 22:21 68.69598 16.65448 4512 ft 162 kts 182°
2026-04-20 22:21 68.68477 16.65596 4334 ft 161 kts 182°
2026-04-20 22:21 68.67399 16.65722 4258 ft 157 kts 182°
2026-04-20 22:22 68.66297 16.65845 4004 ft 159 kts 182°
2026-04-20 22:22 68.65195 16.65973 3739 ft 157 kts 182°
2026-04-20 22:22 68.64115 16.66099 3472 ft 153 kts 182°
2026-04-20 22:22 68.63070 16.66217 3219 ft 147 kts 182°
2026-04-20 22:23 68.62049 16.66335 2984 ft 147 kts 181°
2026-04-20 22:23 68.61026 16.66451 2735 ft 147 kts 181°
2026-04-20 22:23 68.60018 16.66541 2484 ft 143 kts 180°
2026-04-20 22:23 68.59021 16.66672 2250 ft 144 kts 179°
2026-04-20 22:24 68.58032 16.66794 2008 ft 144 kts 179°
2026-04-20 22:24 68.57034 16.66911 1768 ft 144 kts 178°
2026-04-20 22:24 68.56036 16.66992 1523 ft 144 kts 178°
2026-04-20 22:24 68.55035 16.67131 1286 ft 144 kts 177°
2026-04-20 22:25 68.54033 16.67251 1040 ft 144 kts 177°
2026-04-20 22:25 68.53029 16.67373 785 ft 144 kts 178°
2026-04-20 22:25 68.52021 16.67420 511 ft 145 kts 178°
2026-04-20 22:25 68.51020 16.67616 287 ft 143 kts 176°
2026-04-20 22:26 68.50053 16.67709 86 ft 139 kts 177°
2026-04-20 22:26 68.49214 16.67806 95 ft 97 kts 177°
2026-04-20 22:26 68.48771 16.67862 91 ft 26 kts 177°
2026-04-20 22:27 68.48474 16.67889 96 ft 11 kts 171°
2026-04-20 22:27 68.48443 16.68077 92 ft 14 kts 88°
2026-04-20 22:27 68.48488 16.68255 98 ft 14 kts
2026-04-20 22:27 68.48591 16.68239 93 ft 17 kts 356°
2026-04-20 22:28 68.48718 16.68228 89 ft 17 kts 358°
2026-04-20 22:28 68.48832 16.68212 86 ft 14 kts 356°
2026-04-20 22:28 68.48892 16.68267 88 ft 10 kts 69°
2026-04-20 22:28 68.48892 16.68447 91 ft 9 kts 90°
2026-04-20 22:29 68.48893 16.68616 92 ft 6 kts 89°
2026-04-20 22:29 68.48907 16.68710 92 ft 6 kts 26°
2026-04-20 22:29 68.48955 16.68718 90 ft 7 kts 358°
2026-04-20 22:29 68.48980 16.68716 90 ft 0 kts 356°